Regional Weather Roundup
Issued by NWS State College, PA

Home | Current Version | Previous Version | Text Only | Print | Product List | Glossary On
Versions: 1 2 3 4 5 6 7 8 9 10 11 12 13 14 15 16 17 18 19 20 21 22 23 24 25 26 27 28 29 30 31 32 33 34 35 36 37 38 39 40 41 42 43 44 45 46 47 48 49 50
000
ASUS41 KCTP 240610
RWRCTP

REGIONAL WEATHER ROUNDUP
NATIONAL WEATHER SERVICE STATE COLLEGE PA
200 AM EDT TUE MAY 24 2016

Note: "fair" indicates few or no clouds below 12,000 feet with no
significant weather and/or obstructions to visibility.

* = STATION THAT DOES NOT REPORT PRECIPITATION /E.G. RAIN...SNOW...ETC/
    THUNDER OR FOG.

PAZ002>004-007>009-013>016-020>023-029>032-240700-
WESTERN PENNSYLVANIA

CITY           SKY/WX    TMP DP  RH WIND       PRES   REMARKS
ERIE           CLEAR     53  45  74 CALM      30.01S
MEADVILLE      CLEAR     56  42  59 CALM      30.02F
FRANKLIN*      CLEAR     55  41  58 CALM      30.04F
NEW CASTLE     FAIR      49  46  90 CALM      30.02F
BEAVER COUNTY  NOT AVBL
BUTLER*        CLEAR    N/A N/A N/A CALM      30.04S
PITTSBURGH INT PTCLDY    55  49  80 W6        30.02S
PITTSBURGH     CLEAR     59  48  67 W5        30.01S
INDIANA*       CLEAR     52  52 100 CALM      30.04S
LATROBE        PTCLDY    55  54  94 CALM      30.02F
WASHINGTON CO* CLEAR     48  46  93 CALM      30.03S VSB 1
$$

PAZ004>006-010>012-017>019-024>028-033>037-041-042-045-046-049>053-240700-
CENTRAL PENNSYLVANIA

CITY           SKY/WX    TMP DP  RH WIND       PRES   REMARKS
BRADFORD       CLEAR     49  41  74 CALM      30.02S
DUBOIS         CLEAR     53  45  74 CALM      30.00F
CLEARFIELD     CLEAR     51  46  83 NW3       30.00S
JOHNSTOWN      CLEAR     55  44  66 SW5       30.01S
ALTOONA        CLEAR     54  50  86 S5        29.99F
STATE COLLEGE  CLEAR     55  51  85 CALM      29.97F
WILLIAMSPORT   CLEAR     56  49  77 W3        29.93S
SELINSGROVE    CLEAR     51  49  92 N5        29.93F
FT INDIANTOWN  PTCLDY    56  56 100 SW5       29.90F
CAPITAL CITY   CLOUDY    58  53  84 W5        29.93F
HARRISBURG     MOCLDY    59  55  87 NW12      29.91F
YORK           CLOUDY    57  54  89 W3        29.92F
$$

PAZ038>040-043-044-047-048-054-055-060>062-067>071-240700-
EASTERN PENNSYLVANIA

CITY           SKY/WX    TMP DP  RH WIND       PRES   REMARKS
SCRANTON       CLOUDY    65  43  44 N5        29.90F
MOUNT POCONO   PTCLDY    53  45  74 NW7       29.90F
ALLENTOWN      CLOUDY    60  54  80 SW8       29.88F
QUAKERTOWN*    CLOUDY    57  55  94 CALM      29.90F
READING        PTCLDY    59  53  80 CALM      29.88F
LANCASTER      CLOUDY    57  54  89 W8        29.90F
COATESVILLE      N/A    N/A N/A N/A MISG        N/A
POTTSTOWN      PTCLDY    57  55  93 S5        29.91F
BLUE BELL      CLOUDY    55  54  94 E7        29.93R
DOYLESTOWN     CLOUDY    57  55  93 VRB6      29.87F
WILLOW GROVE   NOT AVBL
NORTH PHILA    LGT RAIN  58  55  90 SW14      29.90F FOG
PHILADELPHIA   CLOUDY    58  52  80 SE6       29.92F
$$



USA.gov is the U.S. government's official web portal to all federal, state and local government web resources and services.